Stigler, OK

10:19 AM CDT on August 26, 2016 (GMT -0500)
Stigler

Weather History for KGZL - January, 2014

Change the Weather History Date:

Friday, January 17, 2014

  Actual Average (KJSV) Record (KJSV)
Temperature  
Mean Temperature 35 °F -  
Max Temperature 44 °F 50 °F 74 °F (1952)
Min Temperature 26 °F 28 °F 5 °F (1982)
Degree Days  
Heating Degree Days 30    
Moisture  
Dew Point 6 °F    
Average Humidity 32    
Maximum Humidity 59    
Minimum Humidity 16    
Precipitation  
Precipitation 0.00 in - - ()
Sea Level Pressure  
Sea Level Pressure 30.23 in    
Wind  
Wind Speed 12 mph (NW)    
Max Wind Speed 22 mph    
Max Gust Speed 29 mph    
Visibility 10 miles    
Events      
Averages and records for this station are not official NWS values.
T = Trace of Precipitation, MM = Missing Value Source: NWS Daily Summary

Daily Weather History Graph

Daily Weather History Graph

Search for Another Location

Airport or City:

Trip Planner

Search our weather history database for the weather conditions in past years. The results will help you decide how hot, cold, wet, or windy it might be!

Date:

Astronomy

Jan. 17, 2014 Rise Set
Actual Time 7:27 AM CST 5:33 PM CST
Civil Twilight 7:00 AM CST 6:00 PM CST
Nautical Twilight 6:29 AM CST 6:32 PM CST
Astronomical Twilight 5:58 AM CST 7:02 PM CST
Moon 7:15 PM CST (1/17) 8:01 AM CST (1/17)
Length of Visible Light 11h 00m
Length of Day
10h 05m
Full, 98% of the Moon is Illuminated
Jan 17
Full
Jan 23
Last Quarter
Jan 30
New
Feb 6
First Quarter
Feb 14
Full

Hourly Weather History & Observations

Time (CST) Temp. Windchill Dew Point Humidity Pressure Visibility Wind Dir Wind Speed Gust Speed Precip Events Conditions
12:15 AM 41.0 °F 32.8 °F 6.8 °F 24% 30.14 in 10.0 mi NNW 16.1 mph 25.3 mph N/A   Unknown
12:35 AM 41.0 °F 33.1 °F 6.8 °F 24% 30.14 in 10.0 mi NW 15.0 mph 23.0 mph N/A   Unknown
12:55 AM 39.2 °F 31.2 °F 6.8 °F 26% 30.15 in 10.0 mi NW 13.8 mph - N/A   Unknown
1:15 AM 39.2 °F 32.5 °F 6.8 °F 26% 30.16 in 10.0 mi NW 10.4 mph - N/A   Unknown
1:35 AM 37.4 °F 29.8 °F 6.8 °F 28% 30.17 in 10.0 mi NW 11.5 mph 16.1 mph N/A   Unknown
1:55 AM 37.4 °F 27.2 °F 5.0 °F 26% 30.18 in 10.0 mi NNW 19.6 mph 28.8 mph N/A   Unknown
2:15 AM 37.4 °F 27.5 °F 5.0 °F 26% 30.19 in 10.0 mi NNW 18.4 mph 24.2 mph N/A   Unknown
2:35 AM 37.4 °F 28.5 °F 6.8 °F 28% 30.20 in 10.0 mi NNW 15.0 mph 19.6 mph N/A   Unknown
2:55 AM 35.6 °F 27.5 °F 6.8 °F 30% 30.21 in 10.0 mi NNW 11.5 mph - N/A   Unknown
3:15 AM 35.6 °F 25.2 °F 8.6 °F 33% 30.22 in 10.0 mi North 18.4 mph 24.2 mph N/A   Unknown
3:35 AM 33.8 °F 23.9 °F 8.6 °F 35% 30.23 in 10.0 mi NNW 15.0 mph 20.7 mph N/A   Unknown
3:55 AM 32.0 °F 22.5 °F 8.6 °F 38% 30.23 in 10.0 mi NNW 12.7 mph 17.3 mph N/A   Unknown
4:15 AM 32.0 °F 23.6 °F 8.6 °F 38% 30.23 in 10.0 mi NNW 10.4 mph - N/A   Unknown
4:35 AM 32.0 °F 24.2 °F 8.6 °F 38% 30.23 in 10.0 mi NW 9.2 mph - N/A   Unknown
4:55 AM 30.2 °F 22.6 °F 8.6 °F 40% 30.23 in 10.0 mi NW 8.1 mph - N/A   Unknown
5:15 AM 30.2 °F 22.6 °F 10.4 °F 44% 30.24 in 10.0 mi WNW 8.1 mph - N/A   Unknown
5:35 AM 30.2 °F 21.3 °F 8.6 °F 40% 30.24 in 10.0 mi NW 10.4 mph - N/A   Unknown
5:55 AM 30.2 °F 19.8 °F 6.8 °F 37% 30.24 in 10.0 mi NW 13.8 mph 19.6 mph N/A   Unknown
6:15 AM 30.2 °F 21.9 °F 3.2 °F 32% 30.25 in 10.0 mi NW 9.2 mph - N/A   Unknown
6:35 AM 28.4 °F 20.4 °F 5.0 °F 37% 30.25 in 10.0 mi NW 8.1 mph - N/A   Unknown
6:55 AM 28.4 °F 19.1 °F 6.8 °F 40% 30.25 in 10.0 mi NW 10.4 mph 17.3 mph N/A   Unknown
7:15 AM 28.4 °F 18.0 °F 6.8 °F 40% 30.26 in 10.0 mi NW 12.7 mph - N/A   Unknown
7:35 AM 28.4 °F 18.5 °F 5.0 °F 37% 30.26 in 10.0 mi NW 11.5 mph 19.6 mph N/A   Unknown
7:55 AM 28.4 °F 18.5 °F 5.0 °F 37% 30.27 in 10.0 mi NW 11.5 mph 17.3 mph N/A   Unknown
8:15 AM 30.2 °F 20.8 °F 6.8 °F 37% 30.27 in 10.0 mi NW 11.5 mph - N/A   Unknown
8:35 AM 32.0 °F 21.6 °F 3.2 °F 30% 30.27 in 10.0 mi NW 15.0 mph 21.9 mph N/A   Unknown
8:55 AM 32.0 °F 22.5 °F 1.4 °F 27% 30.28 in 10.0 mi NW 12.7 mph 20.7 mph N/A   Unknown
9:15 AM 32.0 °F 21.6 °F -0.4 °F 25% 30.29 in 10.0 mi NW 15.0 mph 23.0 mph N/A   Unknown
9:35 AM 33.8 °F 24.3 °F 1.4 °F 25% 30.30 in 10.0 mi NW 13.8 mph 24.2 mph N/A   Unknown
9:55 AM 35.6 °F 25.5 °F 3.2 °F 26% 30.31 in 10.0 mi NW 17.3 mph 23.0 mph N/A   Unknown
10:15 AM 35.6 °F 26.2 °F 1.4 °F 24% 30.32 in 10.0 mi NW 15.0 mph 20.7 mph N/A   Unknown
10:35 AM 35.6 °F 25.2 °F 3.2 °F 26% 30.32 in 10.0 mi NW 18.4 mph 24.2 mph N/A   Unknown
10:55 AM 35.6 °F 25.9 °F 1.4 °F 24% 30.31 in 10.0 mi NNW 16.1 mph 24.2 mph N/A   Unknown
11:15 AM 37.4 °F 27.8 °F 1.4 °F 22% 30.30 in 10.0 mi NW 17.3 mph 21.9 mph N/A   Unknown
11:35 AM 37.4 °F 27.5 °F -0.4 °F 20% 30.29 in 10.0 mi NW 18.4 mph 25.3 mph N/A   Unknown
11:55 AM 39.2 °F 29.0 °F -4.0 °F 16% 30.29 in 10.0 mi NNW 21.9 mph 26.5 mph N/A   Unknown
12:15 PM 39.2 °F 30.8 °F -4.0 °F 16% 30.27 in 10.0 mi NW 15.0 mph 25.3 mph N/A   Unknown
12:35 PM 39.2 °F 32.0 °F -2.2 °F 17% 30.27 in 10.0 mi NW 11.5 mph 23.0 mph N/A   Unknown
12:55 PM 41.0 °F 33.5 °F -0.4 °F 18% 30.26 in 10.0 mi WNW 13.8 mph 21.9 mph N/A   Unknown
1:15 PM 41.0 °F 33.1 °F 3.2 °F 21% 30.25 in 10.0 mi NW 15.0 mph 21.9 mph N/A   Unknown
1:35 PM 41.0 °F 33.1 °F 5.0 °F 23% 30.24 in 10.0 mi WNW 15.0 mph 23.0 mph N/A   Unknown
1:55 PM 41.0 °F 33.1 °F 5.0 °F 23% 30.24 in 10.0 mi WNW 15.0 mph 26.5 mph N/A   Unknown
2:15 PM 42.8 °F 36.2 °F 5.0 °F 21% 30.23 in 10.0 mi NW 12.7 mph 23.0 mph N/A   Unknown
2:35 PM 44.6 °F 37.8 °F 5.0 °F 20% 30.23 in 10.0 mi NW 15.0 mph 20.7 mph N/A   Unknown
2:55 PM 44.6 °F 38.4 °F 5.0 °F 20% 30.23 in 10.0 mi NW 12.7 mph 18.4 mph N/A   Unknown
3:15 PM 44.6 °F 37.8 °F 5.0 °F 20% 30.23 in 10.0 mi NW 15.0 mph 21.9 mph N/A   Unknown
3:35 PM 44.6 °F 39.2 °F 5.0 °F 20% 30.22 in 10.0 mi NW 10.4 mph 17.3 mph N/A   Unknown
3:55 PM 44.6 °F 38.8 °F 5.0 °F 20% 30.23 in 10.0 mi WNW 11.5 mph - N/A   Unknown
4:15 PM 44.6 °F 38.1 °F 3.2 °F 18% 30.23 in 10.0 mi WNW 13.8 mph 20.7 mph N/A   Unknown
4:35 PM 44.6 °F 38.1 °F 3.2 °F 18% 30.23 in 10.0 mi NW 13.8 mph - N/A   Unknown
4:55 PM 42.8 °F 37.5 °F 5.0 °F 21% 30.23 in 10.0 mi NW 9.2 mph - N/A   Unknown
5:15 PM 41.0 °F 36.4 °F 5.0 °F 23% 30.23 in 10.0 mi NW 6.9 mph - N/A   Unknown
5:35 PM 39.2 °F 35.9 °F 5.0 °F 24% 30.23 in 10.0 mi NNW 4.6 mph - N/A   Unknown
5:55 PM 35.6 °F 31.7 °F 6.8 °F 30% 30.23 in 10.0 mi NNW 4.6 mph - N/A   Unknown
6:15 PM 32.0 °F - 8.6 °F 38% 30.22 in 10.0 mi Calm Calm - N/A   Unknown
6:35 PM 32.0 °F - 8.6 °F 38% 30.21 in 10.0 mi Calm Calm - N/A   Unknown
6:55 PM 28.4 °F 23.3 °F 12.2 °F 51% 30.20 in 10.0 mi SE 4.6 mph - N/A   Unknown
7:15 PM 28.4 °F 23.3 °F 12.2 °F 51% 30.22 in 10.0 mi WSW 4.6 mph - N/A   Unknown
7:35 PM 30.2 °F - 10.4 °F 44% 30.21 in 10.0 mi Calm Calm - N/A   Unknown
7:55 PM 28.4 °F 23.3 °F 10.4 °F 47% 30.21 in 10.0 mi South 4.6 mph - N/A   Unknown
8:15 PM 28.4 °F - 10.4 °F 47% 30.21 in 8.0 mi Calm Calm - N/A   Unknown
8:35 PM 26.6 °F 22.6 °F 14.0 °F 59% 30.21 in 8.0 mi South 3.5 mph - N/A   Unknown
8:55 PM 28.4 °F 23.3 °F 14.0 °F 55% 30.20 in 10.0 mi South 4.6 mph - N/A   Unknown
9:15 PM 28.4 °F 22.2 °F 12.2 °F 51% 30.20 in 10.0 mi South 5.8 mph - N/A   Unknown
9:35 PM 32.0 °F 27.5 °F 10.4 °F 41% 30.19 in 10.0 mi South 4.6 mph - N/A   Unknown
9:55 PM 32.0 °F 26.4 °F 10.4 °F 41% 30.19 in 10.0 mi South 5.8 mph - N/A   Unknown
10:15 PM 32.0 °F 26.4 °F 10.4 °F 41% 30.18 in 10.0 mi South 5.8 mph - N/A   Unknown
10:35 PM 32.0 °F 25.6 °F 8.6 °F 38% 30.18 in 10.0 mi South 6.9 mph - N/A   Unknown
10:55 PM 32.0 °F 26.4 °F 8.6 °F 38% 30.17 in 10.0 mi South 5.8 mph - N/A   Unknown
11:15 PM 32.0 °F 28.7 °F 10.4 °F 41% 30.16 in 10.0 mi SSE 3.5 mph - N/A   Unknown
11:35 PM 28.4 °F - 10.4 °F 47% 30.15 in 10.0 mi Calm Calm - N/A   Unknown
11:55 PM 28.4 °F - 10.4 °F 47% 30.15 in 10.0 mi Calm Calm - N/A   Unknown